TimePST,TemperatureF,Dew PointF,Humidity,Sea Level PressureIn,VisibilityMPH,Wind Direction,Wind SpeedMPH,Gust SpeedMPH,PrecipitationIn,Events,Conditions,WindDirDegrees,DateUTC
12:00 AM,40.5,38.8,94,30.28,-9999.0,SSE,1.2,-,N/A,,Unknown,160,2012-11-25 08:00:00
1:00 AM,40.3,38.5,93,30.29,-9999.0,Calm,Calm,-,N/A,,Unknown,0,2012-11-25 09:00:00
2:00 AM,40.5,38.7,93,30.30,-9999.0,SSW,2.3,-,N/A,,Unknown,200,2012-11-25 10:00:00
3:00 AM,40.3,38.3,93,30.30,-9999.0,Calm,Calm,-,N/A,,Unknown,0,2012-11-25 11:00:00
4:00 AM,40,39,93,30.31,,East,1.2,,,,,80,2012-11-25 12:00:00
4:00 AM,40.3,38.7,94,30.31,-9999.0,East,1.2,-,N/A,,Unknown,80,2012-11-25 12:00:00
5:00 AM,39.9,38.7,95,30.32,-9999.0,NNW,1.2,-,N/A,,Unknown,330,2012-11-25 13:00:00
6:00 AM,39.7,38.5,95,30.31,-9999.0,Calm,Calm,-,N/A,,Unknown,0,2012-11-25 14:00:00
7:00 AM,39.4,38.5,97,30.32,-9999.0,SSE,1.2,-,N/A,,Unknown,150,2012-11-25 15:00:00
8:00 AM,39.4,38.7,97,30.34,-9999.0,Calm,Calm,-,N/A,,Unknown,0,2012-11-25 16:00:00
9:00 AM,40.3,39.6,97,30.35,-9999.0,SSE,1.2,-,N/A,,Unknown,160,2012-11-25 17:00:00
10:00 AM,43,41,90,30.37,,SE,1.2,,,,,140,2012-11-25 18:00:00
10:00 AM,42.6,41.0,94,30.37,-9999.0,SE,1.2,-,N/A,,Unknown,140,2012-11-25 18:00:00
11:00 AM,45.5,37.0,72,30.36,-9999.0,NNE,4.6,-,N/A,,Unknown,20,2012-11-25 19:00:00
12:00 PM,45.3,38.5,77,30.36,-9999.0,South,3.5,-,N/A,,Unknown,190,2012-11-25 20:00:00
1:00 PM,47.1,38.3,71,30.36,-9999.0,SSW,3.5,-,N/A,,Unknown,210,2012-11-25 21:00:00
2:00 PM,47.5,36.7,66,30.35,-9999.0,SSE,2.3,-,N/A,,Unknown,160,2012-11-25 22:00:00
3:00 PM,46.6,35.6,66,30.35,-9999.0,NNW,2.3,-,N/A,,Unknown,340,2012-11-25 23:00:00
4:00 PM,44,35,62,30.35,,North,1.2,,,,,10,2012-11-26 00:00:00
4:00 PM,43.5,35.2,73,30.35,-9999.0,North,1.2,-,N/A,,Unknown,10,2012-11-26 00:00:00
5:00 PM,38.5,35.6,89,30.35,-9999.0,NNE,2.3,-,N/A,,Unknown,20,2012-11-26 01:00:00
6:00 PM,41.4,36.0,81,30.34,-9999.0,NE,11.5,-,N/A,,Unknown,50,2012-11-26 02:00:00
7:00 PM,41.2,35.2,79,30.32,-9999.0,North,5.8,-,N/A,,Unknown,10,2012-11-26 03:00:00
8:00 PM,40.3,34.5,80,30.33,-9999.0,NE,3.5,-,N/A,,Unknown,40,2012-11-26 04:00:00
9:00 PM,40.5,34.0,78,30.32,-9999.0,NNW,6.9,-,N/A,,Unknown,340,2012-11-26 05:00:00
10:00 PM,40,34,72,30.31,,North,3.5,,,,,10,2012-11-26 06:00:00
10:00 PM,39.6,34.0,80,30.31,-9999.0,North,3.5,-,N/A,,Unknown,10,2012-11-26 06:00:00
11:00 PM,39.6,33.1,78,30.30,-9999.0,North,3.5,-,N/A,,Unknown,360,2012-11-26 07:00:00